Location: Tel Aviv
(32.0670°N, 34.7670°E)
Time: 02:18:20
(UTC+03:00)

Tiros 1 - Pass Details

Date: 27 January 2022
Orbit: 629 x 663 km, 48.4° (Epoch: 26 May)

Event Time Altitude Azimuth Distance (km) Brightness Sun altitude
Rises 03:20:41 0° 316° (NW) 2,981 - -41.7°
Reaches altitude 10° 03:23:13 10° 325° (NW) 2,062 - -41.2°
Maximum altitude 03:27:36 36° 32° (NNE) 1,030 - -40.3°
Exits shadow 03:31:23 13° 96° (E) 1,850 10.1 -39.5°
Drops below altitude 10° 03:31:56 10° 99° (E) 2,035 10.4 -39.4°
Sets 03:34:24 0° 108° (ESE) 2,937 11.3 -38.8°
